Location: Boulin
(43.2500°N, 0.1333°E)
Time: 00:51:27
(UTC+00:00)

YAOGAN 1 - Pass Details

Date: 11 December 2025
Orbit: 605 x 607 km, 97.8° (Epoch: 19 January)

Event Time Altitude Azimuth Distance (km) Brightness Sun altitude
Rises 18:28:30 0° 168° (SSE) 2,851 6.0 -21.8°
Reaches altitude 10° 18:30:39 10° 169° (S) 1,952 5.1 -22.2°
Maximum altitude 18:34:54 82° 257° (WSW) 619 2.5 -23.0°
Drops below altitude 10° 18:39:11 10° 346° (NNW) 1,967 5.2 -23.7°
Sets 18:41:23 0° 347° (NNW) 2,876 6.0 -24.1°
